Regional Weather Roundup
Issued by NWS

Home | Current Version | Previous Version | Graphics & Text | Print | Product List | Glossary On
Versions: 1 2 3 4 5 6 7 8 9 10 11 12 13 14 15 16 17 18 19 20 21 22 23 24 25 26 27 28 29 30 31 32 33 34 35 36 37 38 39 40 41 42 43 44 45 46 47 48 49 50
000
ASUS43 KLMK 280502
RWRKY
KENTUCKY REGIONAL WEATHER ROUNDUP
NATIONAL WEATHER SERVICE LOUISVILLE KY
100 AM EDT FRI JUL 28 2017

NOTE "FAIR" INDICATES FEW OR NO CLOUDS BELOW 12,000 FEET
WITH NO SIGNIFICANT WEATHER AND/OR OBSTRUCTIONS TO VISIBILITY.

KYZ001>023-026-027-061>063-070>075-280600-
WESTERN AND SOUTH CENTRAL KENTUCKY

CITY           SKY/WX    TMP DP  RH WIND       PRES   REMARKS
PADUCAH        CLOUDY    79  75  87 SW6       29.86S
HENDERSON      PTCLDY    75  74  96 SW6       29.85F
OWENSBORO      NOT AVBL
HOPKINSVILLE   CLOUDY    74  74  97 SW5       29.89S
BOWLING GREEN  CLOUDY    76  73  91 W3        29.89F
GLASGOW        NOT AVBL
$$

KYZ024-025-028>034-038-045-046-053-280600-
NORTH CENTRAL KENTUCKY

CITY           SKY/WX    TMP DP  RH WIND       PRES   REMARKS
LOUISVILLE/SDF CLOUDY    78  72  81 W6        29.86R
LOUISVILLE/LOU CLOUDY    78  74  87 S3        29.87R
FORT KNOX      CLOUDY    73  71  93 SW7       29.86R
$$

KYZ035>037-039>044-047>052-055>060-089>105-280600-
NORTHEAST KENTUCKY

CITY           SKY/WX    TMP DP  RH WIND       PRES   REMARKS
LEXINGTON      CLOUDY    73  69  87 CALM      29.89S
COVINGTON      CLOUDY    74  74 100 NW3       29.87S
FRANKFORT      CLOUDY    74  69  85 S3        29.87S
$$

KYZ054-064>069-076>088-106>120-280600-
SOUTHEAST KENTUCKY

CITY           SKY/WX    TMP DP  RH WIND       PRES   REMARKS
JACKSON        CLOUDY    70  68  93 VRB3      29.92S FOG
LONDON         CLOUDY    70  68  93 CALM      29.93S
SOMERSET       CLOUDY    70  70 100 S3        29.92F
MIDDLESBORO    CLOUDY    71  71 100 CALM      29.95F
MONTICELLO     CLOUDY    73  71  93 NE7       29.93F
$$




USA.gov is the U.S. government's official web portal to all federal, state and local government web resources and services.